SCP
-0 -0 -0 -0 -0 -0 -0 -0 -0 -0 -0 -0 -0 -0 -0 -0 -0 -0 -0 -0 -0 -0 -0 -0 -0 -0 -0
-0 -0 -0 -0 -0 -0 -0 -0 -0 -0 -0 -0 -0 -0 -0 -0 -0 -0 -0 -0 -0 -0 -0 -0 0 -0 -0
-0 -0 -0 -0 -0 -0 -0 -0 -0 -0 -0 -0 -0 -0 -0 -0 -0 -0 -0 -0 -0 -0 -0 0 0 0 0
0 -0 -0 -0 -0 -0 -0 -0 0 0 0 0 0 0 -0 -0 -0 -0 -0 0 0 0 0 0 0 0 0
0 0 0 0 0 0 -0 0 0 0 0 0 0 0 0 0 0 0 0 0 0 0 0 0 0 0 0
0 0 0 0 0 0 0 0 0 0 0 0 0 0 0 0 0 0 0 0 0 0 0 0 0 0 0
0 0 0 0 0 0 0 0 0 0 0 0 0 0 0 0 0 0 0 0 0 0 0 0 0 0 0
0 0 0 0 0 0 0 0 0 0 0 0 0 0 0 0 0 0 0 0 0 0 0 0 0 0 0
0 0 0 0 0 0 0 0 0 0 0 0 0 0 0 0 0 0 0 0 0 0 0 0 0 0 0
0 0 0 0 0 0 0 0 0 0 0 0 0 0 0 0 0 0 0 0 0 0 0 0 0 0 0
0 0 0 0 0 0 0 0 0 0 0 0 0 0 0 0 0 0 0 0 0 0 0 0 0 0 0
0 0 0 0 0 0 0 0 0 0 0 0 0 0 0 0 0 0 0 0 0 0 0 0 0 0 0
0 0 0 0 0 0 0 0 0 0 0 0 0 0 0 0 0 0 0 0 0 0 0 0 0 0 0
0 0 0 0 0 0 0 0 0 0 0 0 0 0 0 0 0 0 0 0 0 0 0 0 0 0 0
0 0 0 0 0 0 0 0 0 0 0 0 0 0 0 0 0 0 0 0 0 0 0 0 0 0 0
0 0 0 0 0 0 0 0 0 0 0 0 0 0 0 0 0 0 0 0 0 0 0 0 0 0 0
Wind_Speed_500mb
25 23 19 18 16 16 16 13 13 13 17 21 24 25 25 24 25 24 25 25 25 25 26 27 27 32 40
30 26 21 19 17 15 15 13 11 11 13 17 20 22 24 27 26 26 26 25 25 26 27 27 29 34 45
29 29 26 24 20 19 20 16 13 11 11 13 14 13 16 20 23 23 25 26 26 26 27 25 27 35 43
32 28 26 25 25 24 23 21 19 16 16 16 14 6 7 11 16 19 19 20 21 25 25 22 29 33 40
36 36 33 29 26 27 28 24 21 21 20 22 17 12 7 6 7 11 13 14 17 21 23 26 30 31 34
47 42 39 40 38 34 31 28 30 29 24 24 22 19 15 9 7 7 11 13 15 18 19 22 25 27 28
51 48 48 41 39 36 35 39 33 27 27 28 25 27 21 17 12 13 12 13 16 17 19 19 21 24 25
58 54 52 53 47 45 45 42 39 37 33 36 32 35 32 23 15 16 15 14 17 22 22 23 24 25 23
62 61 61 60 62 56 52 51 45 46 42 37 33 39 35 28 18 20 21 21 19 26 27 27 24 23 23
63 64 64 66 63 63 62 59 56 54 49 46 44 41 48 33 24 23 26 28 27 32 32 30 28 25 23
62 62 65 66 69 66 69 62 64 61 59 56 55 52 49 41 32 30 32 33 39 40 37 34 30 27 23
65 65 66 66 71 68 73 68 68 65 61 61 60 65 54 50 40 37 40 45 45 45 43 38 33 28 22
73 71 71 70 71 72 73 66 68 65 66 65 60 67 54 57 46 42 47 55 55 52 48 42 35 27 22
76 73 73 71 70 72 70 68 68 66 67 68 64 65 54 59 51 51 55 64 60 58 51 39 24 21 23
77 77 75 69 68 73 76 74 71 68 69 70 71 70 65 64 56 57 62 68 68 69 59 27 17 16 32
81 81 77 75 77 81 78 73 69 67 76 72 75 83 69 59 58 61 66 69 69 68 66 53 25 23 18
Wind_Direction_500mb
183 185 183 182 173 157 149 134 106 94 90 86 83 93 96 95 96 97 96 95 94 94 93 91 93 92 79
192 190 192 192 188 176 168 157 135 118 101 93 86 91 88 90 92 94 94 93 95 97 95 97 97 90 89
199 199 197 198 197 192 188 184 174 159 144 119 90 91 94 92 89 91 93 90 90 93 97 101 99 94 101
204 206 208 211 205 202 205 200 192 185 181 161 129 114 108 97 96 96 96 95 95 101 104 108 100 102 107
207 212 213 223 218 213 217 211 212 210 201 192 169 185 167 171 133 119 118 117 111 110 112 107 106 108 106
211 213 219 218 216 221 223 229 221 220 219 215 211 204 193 195 204 171 162 150 140 133 127 122 119 113 109
218 217 218 219 224 225 230 229 224 227 227 220 225 227 209 189 228 263 202 189 170 156 146 138 130 123 118
226 227 221 222 222 222 226 230 227 228 235 227 225 230 209 198 220 267 225 203 184 166 162 151 142 129 121
230 231 231 227 222 222 227 231 230 230 235 237 232 237 227 209 214 252 233 216 200 171 166 155 145 139 134
232 232 233 233 226 225 221 229 228 228 233 236 233 229 219 212 216 239 243 219 202 178 170 162 157 148 143
233 233 235 233 234 231 222 222 226 230 233 233 238 234 223 223 223 242 241 221 198 182 176 168 160 159 152
234 234 235 232 231 230 221 222 227 227 231 232 233 236 219 219 222 237 233 207 198 187 177 170 168 167 158
233 232 233 232 229 227 223 224 226 224 225 228 234 231 225 211 224 237 223 208 194 191 183 171 170 170 166
237 236 237 237 233 228 225 224 221 222 224 227 225 216 229 210 225 232 225 203 201 194 191 175 166 181 186
237 235 236 235 232 225 223 224 218 219 225 225 226 226 226 224 234 234 220 213 206 197 196 182 172 196 189
237 238 238 239 234 228 229 225 215 220 226 218 230 233 224 230 231 228 220 216 215 210 204 207 208 204 181
Wind_Speed_850mb
25 23 19 18 16 16 16 13 13 13 17 21 24 25 25 24 25 24 25 25 25 25 26 27 27 32 40
30 26 21 19 17 15 15 13 11 11 13 17 20 22 24 27 26 26 26 25 25 26 27 27 29 34 45
29 29 26 24 20 19 20 16 13 11 11 13 14 13 16 20 23 23 25 26 26 26 27 25 27 35 43
32 28 26 25 25 24 23 21 19 16 16 16 14 6 7 11 16 19 19 20 21 25 25 22 29 33 40
36 36 33 29 26 27 28 24 21 21 20 22 17 12 7 6 7 11 13 14 17 21 23 26 30 31 34
47 42 39 40 38 34 31 28 30 29 24 24 22 19 15 9 7 7 11 13 15 18 19 22 25 27 28
51 48 48 41 39 36 35 39 33 27 27 28 25 27 21 17 12 13 12 13 16 17 19 19 21 24 25
58 54 52 53 47 45 45 42 39 37 33 36 32 35 32 23 15 16 15 14 17 22 22 23 24 25 23
62 61 61 60 62 56 52 51 45 46 42 37 33 39 35 28 18 20 21 21 19 26 27 27 24 23 23
63 64 64 66 63 63 62 59 56 54 49 46 44 41 48 33 24 23 26 28 27 32 32 30 28 25 23
62 62 65 66 69 66 69 62 64 61 59 56 55 52 49 41 32 30 32 33 39 40 37 34 30 27 23
65 65 66 66 71 68 73 68 68 65 61 61 60 65 54 50 40 37 40 45 45 45 43 38 33 28 22
73 71 71 70 71 72 73 66 68 65 66 65 60 67 54 57 46 42 47 55 55 52 48 42 35 27 22
76 73 73 71 70 72 70 68 68 66 67 68 64 65 54 59 51 51 55 64 60 58 51 39 24 21 23
77 77 75 69 68 73 76 74 71 68 69 70 71 70 65 64 56 57 62 68 68 69 59 27 17 16 32
81 81 77 75 77 81 78 73 69 67 76 72 75 83 69 59 58 61 66 69 69 68 66 53 25 23 18
Wind_Direction_850mb
183 185 183 182 173 157 149 134 106 94 90 86 83 93 96 95 96 97 96 95 94 94 93 91 93 92 79
192 190 192 192 188 176 168 157 135 118 101 93 86 91 88 90 92 94 94 93 95 97 95 97 97 90 89
199 199 197 198 197 192 188 184 174 159 144 119 90 91 94 92 89 91 93 90 90 93 97 101 99 94 101
204 206 208 211 205 202 205 200 192 185 181 161 129 114 108 97 96 96 96 95 95 101 104 108 100 102 107
207 212 213 223 218 213 217 211 212 210 201 192 169 185 167 171 133 119 118 117 111 110 112 107 106 108 106
211 213 219 218 216 221 223 229 221 220 219 215 211 204 193 195 204 171 162 150 140 133 127 122 119 113 109
218 217 218 219 224 225 230 229 224 227 227 220 225 227 209 189 228 263 202 189 170 156 146 138 130 123 118
226 227 221 222 222 222 226 230 227 228 235 227 225 230 209 198 220 267 225 203 184 166 162 151 142 129 121
230 231 231 227 222 222 227 231 230 230 235 237 232 237 227 209 214 252 233 216 200 171 166 155 145 139 134
232 232 233 233 226 225 221 229 228 228 233 236 233 229 219 212 216 239 243 219 202 178 170 162 157 148 143
233 233 235 233 234 231 222 222 226 230 233 233 238 234 223 223 223 242 241 221 198 182 176 168 160 159 152
234 234 235 232 231 230 221 222 227 227 231 232 233 236 219 219 222 237 233 207 198 187 177 170 168 167 158
233 232 233 232 229 227 223 224 226 224 225 228 234 231 225 211 224 237 223 208 194 191 183 171 170 170 166
237 236 237 237 233 228 225 224 221 222 224 227 225 216 229 210 225 232 225 203 201 194 191 175 166 181 186
237 235 236 235 232 225 223 224 218 219 225 225 226 226 226 224 234 234 220 213 206 197 196 182 172 196 189
237 238 238 239 234 228 229 225 215 220 226 218 230 233 224 230 231 228 220 216 215 210 204 207 208 204 181